Regional Weather Roundup
Issued by NWS

Home | Current Version | Previous Version | Text Only | Print | Product List | Glossary Off
Versions: 1 2 3 4 5 6 7 8 9 10 11 12 13 14 15 16 17 18 19 20 21 22 23 24 25 26 27 28 29 30 31 32 33 34 35 36 37 38 39 40 41 42 43 44 45 46 47 48 49 50

000
ASUS43 KMKX 260321
RWRWI

WISCONSIN REGIONAL WEATHER ROUNDUP
NATIONAL WEATHER SERVICE MILWAUKEE/SULLIVAN WI
1000 PM CDT MON MAY 25 2015

NOTE: "FAIR" INDICATES FEW OR NO CLOUDS BELOW 12,000 FEET WITH NO
SIGNIFICANT WEATHER AND/OR OBSTRUCTIONS TO VISIBILITY.

WIZ001-002-006>008-014>016-023>028-260400-
NORTHWEST WISCONSIN

CITY           SKY/WX    TMP DP  RH WIND       PRES   REMARKS
SUPERIOR ARPT  CLOUDY    46  46  99 CALM      29.78R
ASHLAND        CLOUDY    51  50  96 CALM      29.77R
HAYWARD        MOCLDY    60  57  89 S3        29.77R
SIREN          MOCLDY    59  57  94 CALM      29.75R
CUMBERLAND     PTCLDY    59  55  88 S5        29.76S
RICE LAKE      MOCLDY    63  58  84 CALM      29.77S
CHETEK         MOCLDY    61  60  97 CALM      29.76F
LADYSMITH      MOCLDY    63  60  88 CALM      29.79S
EAU CLAIRE     CLOUDY    64  62  93 S5        29.76S
MENOMONIE      MOCLDY    64  61  91 SE5       29.76F
NEW RICHMOND   PTCLDY    64  58  81 S3        29.75F
OSCEOLA        CLEAR     62  57  83 SW3       29.76F
$$

WIZ003>005-009-010-017-018-260400-
NORTH CENTRAL WISCONSIN

CITY           SKY/WX    TMP DP  RH WIND       PRES   REMARKS
MANITOWISH WTR CLOUDY    60  58  94 S5        29.79R
ARBOR VITAE    PTCLDY    59  57  92 CALM      29.80R
WOODRUFF       PTCLDY    59  57  92 CALM      29.80R
RHINELANDER    CLOUDY    63  58  83 SW6       29.81R
EAGLE RIVER    MOCLDY    60  58  94 SW3       29.80R
LAND O LAKES   PTCLDY    60  57  89 SW3       29.80R
PHILLIPS       CLOUDY    60  58  93 CALM      29.79R
TOMAHAWK       MOCLDY    61  58  91 CALM      29.82R
MEDFORD        PTCLDY    60  59  97 S3        29.81S
MERRILL        PTCLDY    58  58  99 CALM      29.83R
$$

WIZ029-030-035-036-043>047-260400-
CENTRAL WISCONSIN

CITY           SKY/WX    TMP DP  RH WIND       PRES   REMARKS
WAUSAU         CLEAR     60  56  86 CALM      29.81R
MOSINEE        CLEAR     61  59  94 S6        29.84R
MARSHFIELD     PTCLDY    61  57  87 S7        29.82R
STEVENS POINT  CLOUDY    61  60  97 S3        29.84R
WAUPACA        MOCLDY    64  63  97 S3        29.84R
WAUTOMA        PTCLDY    64  64 100 CALM      29.85R
WISC RAPIDS    PTCLDY    62  59  90 CALM      29.84R
CAMP DOUGLAS   LGT RAIN  66  66 100 S13       29.83R
$$

WIZ011>013-019>022-031-037>040-048>050-260400-
NORTHEAST WISCONSIN

CITY           SKY/WX    TMP DP  RH WIND       PRES   REMARKS
ANTIGO         PTCLDY    59  57  94 W7        29.83S
SHAWANO        CLOUDY    66  61  85 SW3       29.83R
OCONTO         PTCLDY    65  63  91 W5        29.81R
STURGEON BAY   MOCLDY    64  61  88 SW8       29.86R
GREEN BAY      PTCLDY    65  61  87 SW6       29.84R
MANITOWOC      CLEAR     72  62  71 SW13      29.86R
APPLETON       MOCLDY    64  57  77 SW7       29.85R
CLINTONVILLE   PTCLDY    63  61  94 SW3       29.83R
OSHKOSH        CLEAR     69  60  73 S8        29.85R
$$

WIZ032>034-041-042-053>061-260400-
SOUTHWEST WISCONSIN

CITY           SKY/WX    TMP DP  RH WIND       PRES   REMARKS
LA CROSSE      PTCLDY    66  63  90 S6        29.79R
SPARTA         MOCLDY    60  59  97 CALM      29.82S
VIROQUA        PTCLDY    69  61  76 S9        29.84R
BOSCOBEL       PTCLDY    73  61  65 SW6       29.85R
PRAIRIE DU CHI MOCLDY    72  60  66 S6        29.84R
PLATTEVILLE    PTCLDY    69  63  82 S13       29.88R
$$

WIZ056-057-062-063-064-067-068-260400-
SOUTH CENTRAL WISCONSIN

CITY           SKY/WX    TMP DP  RH WIND       PRES   REMARKS
REEDSBURG      PTCLDY    68  61  78 S9        29.84R
BARABOO/DELLS  PTCLDY    69  59  70 S10       29.86R
LONE ROCK      PTCLDY    71  61  70 CALM      29.87R
MINERAL POINT  PTCLDY    70  61  73 S8        29.89R
MADISON        PTCLDY    72  60  66 S8        29.87R
MIDDLETON      PTCLDY    72  59  62 SW9       29.88R
WATERTOWN      CLEAR     69  61  77 S5        29.88R
MONROE         PTCLDY    68  61  77 S10       29.90R
JANESVILLE     PTCLDY    72  59  64 S9        29.90R
$$

WIZ051-052-058>065-066-070>072-260400-
SOUTHEAST WISCONSIN

CITY           SKY/WX    TMP DP  RH WIND       PRES   REMARKS
MILWAUKEE      PTCLDY    71  60  68 SW8       29.91R
WAUKESHA       CLEAR     68  59  73 S5        29.92R
MILWAUKEE/TIMM CLEAR     70  59  68 S9        29.90R
RACINE         CLEAR     72  59  63 SW9       29.93R
BURLINGTON     CLEAR     67  60  79 S8        29.92R
KENOSHA        CLEAR     71  60  68 S7        29.93R
FOND DU LAC    CLEAR     70  59  68 S10       29.86R
SHEBOYGAN      CLEAR     67  59  75 S9        29.87R
WEST BEND      CLEAR     70  61  73 S5        29.89R
JUNEAU         CLEAR     68  60  75 S8        29.90R
$$

LSZ147-162-260400-
LAKE SUPERIOR

STATION/POSITION TIME  TEMP    WIND        PRES    WAVE
                       AIR SEA DIR/SP/G            HT/PER
                 (UTC) (F)     (DEG/KT/KT) (MB)    (FT/S)
W MID LAKE BUOY  0250   39 36  190/  2/  6 1081.0R   2/ 4
DEVILS ISLAND    0300   42     340/  4/  5 1086.0R
PORT WING        0240   42     360/  3/  4 1085.0R
SAXON HARBOR     0200   47        CALM     1071.0S
$$

LMZ867-665-643>646-260400-
LAKE MICHIGAN

STATION/POSITION TIME  TEMP    WIND        PRES    WAVE
                       AIR SEA DIR/SP/G            HT/PER
                 (UTC) (F)     (DEG/KT/KT) (MB)    (FT/S)
CHAMBERS ISLAND  0200   65     190/  8/ 14 1085.0R
N MID LAKE BUOY  0250   42 37  200/ 12/ 14   N/A     3/ 6
NORTHPORT PIER   0200   56     180/  3/  5 1085.0R
SISTER BAY       0203   67     190/ 11/ 11   N/A
KEWAUNEE LAKESHO 0200          180/  9/ 10 1086.0S
SHEBOYGAN LAKESH 0300   69     200/ 10/ 11   N/A
PORT WASHINGTON  0200   73     200/  6/  9   N/A
ATWATER BUOY     0300   58 45  160/  8/ 10   N/A
MILWAUKEE LAKESH 0300   72     200/ 10/ 12   N/A
S MID LAKE BUOY  0250   49 38  200/ 12/ 12   N/A     1/ 3
KENOSHA   LAKESH 0300   73     200/  7/  9   N/A
$$

TC  - TEMPERATURE IN CELSIUS
VSB - VISIBILITY IN STATUTE MILES
WCI - WIND CHILL INDEX
HX  - HEAT INDEX



USA.gov is the U.S. government's official web portal to all federal, state and local government web resources and services.